Richmond, VA

4:48 PM EDT on April 25, 2017 (GMT -0400)
Richmond International

Weather History for KRIC - May, 2014

Change the Weather History Date:

Tuesday, May 20, 2014

  Actual Average Record
Temperature  
Mean Temperature 66 °F 67 °F  
Max Temperature 81 °F 79 °F 96 °F (1934)
Min Temperature 51 °F 56 °F 41 °F (1976)
Degree Days  
Heating Degree Days 0 2  
Month to date heating degree days 19 60  
Since 1 July heating degree days 3779 3752  
Cooling Degree Days 1 4  
Month to date cooling degree days 100 57  
Year to date cooling degree days 129 99  
Growing Degree Days 16 (Base 50)    
Moisture  
Dew Point 47 °F    
Average Humidity 51    
Maximum Humidity 73    
Minimum Humidity 28    
Precipitation  
Precipitation 0.00 in 0.13 in 3.22 in (1889)
Month to date precipitation 1.37 2.34  
Year to date precipitation 14.97 15.45  
Snow  
Snow 0.00 in 0.00 in 0.00 in (2002)
Month to date snowfall 0.0 0.0  
Since 1 July snowfall 14.5 10.3  
Snow Depth 0.00 in    
Sea Level Pressure  
Sea Level Pressure 30.16 in    
Wind  
Wind Speed 7 mph (SW)    
Max Wind Speed 15 mph    
Max Gust Speed 23 mph    
Visibility 10 miles    
Events      
T = Trace of Precipitation, MM = Missing Value Source: NWS Daily Summary

Daily Weather History Graph

Daily Weather History Graph

Search for Another Location

Airport or City:

Trip Planner

Search our weather history database for the weather conditions in past years. The results will help you decide how hot, cold, wet, or windy it might be!

Date:

Astronomy

May. 20, 2014 Rise Set
Actual Time 5:56 AM EDT 8:15 PM EDT
Civil Twilight 5:26 AM EDT 8:45 PM EDT
Nautical Twilight 4:50 AM EDT 9:22 PM EDT
Astronomical Twilight 4:10 AM EDT 10:02 PM EDT
Moon 12:47 AM EDT (5/20) 11:57 AM EDT (5/20)
Length of Visible Light 15h 19m
Length of Day
14h 19m
Waning Gibbous, 60% of the Moon is Illuminated
May 20
Waning Gibbous
May 21
Last Quarter
May 28
New
Jun 5
First Quarter
Jun 13
Full

Hourly Weather History & Observations

Time (EDT) Temp. Dew Point Humidity Pressure Visibility Wind Dir Wind Speed Gust Speed Precip Events Conditions
12:54 AM 55.0 °F 43.0 °F 64% 30.23 in 10.0 mi Calm Calm - N/A   Clear
1:54 AM 53.6 °F 42.8 °F 67% 30.21 in 10.0 mi Calm Calm - N/A   Partly Cloudy
2:54 AM 53.1 °F 42.1 °F 66% 30.21 in 10.0 mi Calm Calm - N/A   Clear
3:54 AM 53.1 °F 43.0 °F 69% 30.22 in 10.0 mi Calm Calm - N/A   Clear
4:54 AM 52.0 °F 43.0 °F 71% 30.22 in 10.0 mi SSW 3.5 mph - N/A   Clear
5:54 AM 55.9 °F 43.0 °F 62% 30.24 in 10.0 mi WSW 8.1 mph - N/A   Partly Cloudy
6:54 AM 59.0 °F 44.1 °F 58% 30.25 in 10.0 mi WSW 6.9 mph - N/A   Scattered Clouds
7:54 AM 63.0 °F 45.0 °F 52% 30.24 in 10.0 mi WSW 6.9 mph - N/A   Overcast
8:54 AM 66.0 °F 46.0 °F 48% 30.23 in 10.0 mi SW 9.2 mph - N/A   Overcast
9:54 AM 69.1 °F 46.0 °F 44% 30.21 in 10.0 mi West 11.5 mph - N/A   Mostly Cloudy
10:54 AM 72.0 °F 48.9 °F 44% 30.21 in 10.0 mi West 9.2 mph - N/A   Mostly Cloudy
11:54 AM 75.0 °F 50.0 °F 41% 30.19 in 10.0 mi West 9.2 mph - N/A   Mostly Cloudy
12:54 PM 75.9 °F 48.9 °F 38% 30.17 in 10.0 mi SW 6.9 mph - N/A   Scattered Clouds
1:54 PM 75.9 °F 48.9 °F 38% 30.15 in 10.0 mi Variable 5.8 mph - N/A   Mostly Cloudy
2:54 PM 79.0 °F 45.0 °F 30% 30.11 in 10.0 mi West 8.1 mph 16.1 mph N/A   Scattered Clouds
3:54 PM 80.1 °F 45.0 °F 29% 30.10 in 10.0 mi West 10.4 mph - N/A   Scattered Clouds
4:54 PM 80.1 °F 46.0 °F 30% 30.09 in 10.0 mi WSW 9.2 mph - N/A   Scattered Clouds
5:54 PM 80.1 °F 46.0 °F 30% 30.08 in 10.0 mi SW 9.2 mph - N/A   Scattered Clouds
6:54 PM 79.0 °F 48.0 °F 34% 30.06 in 10.0 mi SSW 6.9 mph - N/A   Mostly Cloudy
7:54 PM 73.0 °F 53.1 °F 49% 30.06 in 10.0 mi South 5.8 mph - N/A   Overcast
8:54 PM 69.1 °F 54.0 °F 58% 30.06 in 10.0 mi SSW 6.9 mph - N/A   Overcast
9:54 PM 66.9 °F 54.0 °F 63% 30.07 in 10.0 mi South 5.8 mph - N/A   Mostly Cloudy
10:54 PM 64.9 °F 54.0 °F 68% 30.06 in 10.0 mi South 5.8 mph - N/A   Scattered Clouds
11:54 PM 64.9 °F 55.0 °F 70% 30.04 in 10.0 mi South 6.9 mph - N/A   Scattered Clouds